Weather History for Salinas, CA

Change the Weather History Date:

Tuesday, February 18, 2014

  Actual Average Record
Temperature  
Mean Temperature 53 °F 53 °F  
Max Temperature 66 °F 63 °F 79 °F (1935)
Min Temperature 40 °F 44 °F 30 °F (1990)
Degree Days  
Heating Degree Days 12 12  
Month to date heating degree days 211 222  
Since 1 July heating degree days 1381 1700  
Cooling Degree Days 0 0  
Month to date cooling degree days 0 0  
Year to date cooling degree days 2 0  
Growing Degree Days 2 (Base 50)    
Moisture  
Dew Point 45 °F    
Average Humidity 70    
Maximum Humidity 92    
Minimum Humidity 48    
Precipitation  
Precipitation 0.00 in 0.09 in 0.78 in (2001)
Month to date precipitation 1.19 1.60  
Year to date precipitation 1.31 4.20  
Since 1 July precipitation 2.25 8.31  
Sea Level Pressure  
Sea Level Pressure 30.16 in    
Wind  
Wind Speed 4 mph (West)    
Max Wind Speed 16 mph    
Max Gust Speed 21 mph    
Visibility 10 miles    
Events      
T = Trace of Precipitation, MM = Missing Value Source: NWS Daily Summary

Daily Weather History Graph

Daily Weather History Graph

Search for Another Location

Airport:

Trip Planner

Search our weather history database for the weather conditions in past years. The results will help you decide how hot, cold, wet, or windy it might be!

Date:

Astronomy

Feb. 18, 2014 Rise Set
Actual Time 6:50 AM PST 5:50 PM PST
Civil Twilight 6:24 AM PST 6:16 PM PST
Nautical Twilight 5:54 AM PST 6:46 PM PST
Astronomical Twilight 5:24 AM PST 7:16 PM PST
Moon 9:41 PM PST (2/18) 8:32 AM PST (2/18)
Length of Visible Light 11h 51m
Length of Day
10h 59m
Waning Gibbous, 86% of the Moon is Illuminated
Feb 18
Waning Gibbous
Feb 22
Last Quarter
Mar 1
New
Mar 8
First Quarter
Mar 16
Full

Hourly Weather History & Observations

Time (PST) Temp. Windchill Dew Point Humidity Pressure Visibility Wind Dir Wind Speed Gust Speed Precip Events Conditions
12:53 AM 46.9 °F - 43.0 °F 86% 30.19 in 10.0 mi Calm Calm - N/A   Clear
1:53 AM 44.1 °F - 39.9 °F 85% 30.19 in 10.0 mi Calm Calm - N/A   Clear
2:53 AM 44.1 °F - 41.0 °F 89% 30.17 in 10.0 mi Calm Calm - N/A   Clear
3:53 AM 41.0 °F - 37.9 °F 89% 30.18 in 9.0 mi Calm Calm - N/A   Clear
4:53 AM 42.1 °F - 39.0 °F 89% 30.18 in 10.0 mi Calm Calm - N/A   Clear
5:53 AM 42.1 °F - 39.0 °F 89% 30.18 in 10.0 mi Calm Calm - N/A   Clear
6:53 AM 39.9 °F 37.8 °F 37.0 °F 89% 30.19 in 10.0 mi East 3.5 mph - N/A   Clear
7:53 AM 43.0 °F 41.3 °F 39.0 °F 86% 30.21 in 10.0 mi SE 3.5 mph - N/A   Clear
8:53 AM 46.9 °F - 41.0 °F 80% 30.22 in 10.0 mi Calm Calm - N/A   Clear
9:53 AM 52.0 °F - 42.1 °F 69% 30.22 in 10.0 mi East 3.5 mph - N/A   Clear
10:53 AM 57.0 °F - 44.1 °F 62% 30.20 in 10.0 mi Calm Calm - N/A   Clear
11:53 AM 60.1 °F - 45.0 °F 57% 30.18 in 10.0 mi Calm Calm - N/A   Clear
12:53 PM 62.1 °F - 46.0 °F 56% 30.14 in 10.0 mi West 8.1 mph - N/A   Clear
1:53 PM 62.1 °F - 46.9 °F 58% 30.13 in 10.0 mi West 10.4 mph - N/A   Clear
2:53 PM 66.0 °F - 46.9 °F 50% 30.11 in 10.0 mi West 8.1 mph - N/A   Clear
3:53 PM 61.0 °F - 48.9 °F 64% 30.11 in 10.0 mi West 12.7 mph - N/A   Clear
4:53 PM 61.0 °F - 46.9 °F 60% 30.11 in 10.0 mi WNW 8.1 mph - N/A   Clear
5:53 PM 59.0 °F - 50.0 °F 72% 30.11 in 10.0 mi West 10.4 mph - N/A   Clear
6:53 PM 57.0 °F - 50.0 °F 77% 30.13 in 10.0 mi WSW 6.9 mph - N/A   Clear
7:53 PM 57.0 °F - 48.9 °F 74% 30.14 in 10.0 mi NW 4.6 mph - N/A   Clear
8:53 PM 57.0 °F - 48.0 °F 72% 30.15 in 10.0 mi Variable 3.5 mph - N/A   Clear
9:53 PM 55.9 °F - 48.9 °F 77% 30.14 in 10.0 mi WNW 3.5 mph - N/A   Clear
10:53 PM 55.0 °F - 50.0 °F 83% 30.14 in 10.0 mi West 3.5 mph - N/A   Clear
11:53 PM 54.0 °F - 50.0 °F 86% 30.12 in 9.0 mi NW 5.8 mph - N/A   Clear